This demonstration page uses our WeatherBlox Daily Observations layout. Learn more.

Left ArrowRight Arrow

38.89511, -77.03637

Hourly Observations for November 24, 2015

Temp ( °F °C ) Dew Point ( °F °C ) Humidity (%) Winds ( mph kmh ) Pressure ( in mb ) Visibility ( mi km ) Precip ( " mm )
12:52 am 00:52 Mostly Cloudy 37 2.8 23 -5 57 57 S 6 9 30.30 1026 10 16 N/A
1:52 am 01:52 Partly Cloudy 37 2.8 22 -5.6 54 54 SSE 6 9 30.29 1026 10 16 N/A
2:52 am 02:52 Mostly Clear 36 2.2 23 -5 59 59 SSW 8 13 30.29 1026 10 16 N/A
3:52 am 03:52 Partly Cloudy 34 1.1 24 -4.4 67 67 SSW 7 11 30.29 1026 10 16 N/A
4:52 am 04:52 Cloudy 36 2.2 22 -5.6 57 57 SSW 7 11 30.31 1026 10 16 N/A
5:52 am 05:52 Cloudy 36 2.2 23 -5 59 59 SSW 5 7 30.33 1027 10 16 N/A
6:52 am 06:52 Mostly Cloudy 37 2.8 23 -5 57 57 S 7 11 30.35 1028 10 16 N/A
7:52 am 07:52 Mostly Cloudy 37 2.8 23 -5 57 57 SSW 6 9 30.36 1028 10 16 N/A
8:52 am 08:52 Partly Cloudy 39 3.9 22 -5.6 50 50 SSW 6 9 30.38 1029 10 16 N/A
9:52 am 09:52 Partly Cloudy 44 6.7 25 -3.9 47 47 S 6 9 30.39 1029 10 16 N/A
10:52 am 10:52 Mostly Sunny 48 8.9 31 -0.6 52 52 SSE 8 13 30.38 1029 10 16 N/A
11:52 am 11:52 Partly Cloudy 54 12.2 28 -2.2 37 37 WNW 14 22 30.37 1029 10 16 N/A
12:52 pm 12:52 Partly Cloudy 55 12.8 29 -1.7 37 37 WNW 8 13 30.36 1028 10 16 N/A
1:52 pm 13:52 Mostly Cloudy 54 12.2 29 -1.7 38 38 WNW 12 19 30.35 1028 10 16 N/A
2:52 pm 14:52 Partly Cloudy 54 12.2 28 -2.2 37 37 NNW 9 15 30.36 1028 10 16 N/A
3:52 pm 15:52 Partly Cloudy 54 12.2 28 -2.2 37 37 WNW 8 13 30.37 1029 10 16 N/A
4:52 pm 16:52 Mostly Clear 51 10.6 28 -2.2 41 41 NNW 5 7 30.40 1030 10 16 N/A
5:52 pm 17:52 Clear 49 9.4 29 -1.7 46 46 N 5 7 30.42 1030 10 16 N/A
6:52 pm 18:52 Clear 47 8.3 33 0.6 59 59 N N/A 30.45 1031 10 16 N/A
7:52 pm 19:52 Clear 47 8.3 32 undefined 56 56 N 3 6 30.47 1032 10 16 N/A
8:52 pm 20:52 Clear 44 6.7 32 undefined 63 63 N 5 7 30.49 1033 10 16 N/A
9:52 pm 21:52 Clear 43 6.1 35 1.7 74 74 NNE 5 7 30.51 1033 10 16 N/A
10:52 pm 22:52 Clear 42 5.6 33 0.6 71 71 NE 7 11 30.52 1033 10 16 N/A
11:52 pm 23:52 Clear 42 5.6 32 undefined 68 68 NE 6 9 30.53 1034 10 16 N/A

Powered by AerisWeather